Regional Weather Roundup
Issued by NWS New Orleans/Baton Rouge, LA

Home | Current Version | Previous Version | Graphics & Text | Print | Product List | Glossary On
Versions: 1 2 3 4 5 6 7 8 9 10 11 12 13 14 15 16 17 18 19 20 21 22 23 24 25 26 27 28 29 30 31 32 33 34 35 36 37 38 39 40 41 42 43 44 45 46 47 48 49 50
750
ASUS44 KLIX 280810
RWRLIX
NEW ORLEANS REGIONAL WEATHER ROUNDUP
NATIONAL WEATHER SERVICE NEW ORLEANS LA
200 AM CST FRI NOV 28 2014

NOTE: "FAIR" INDICATES FEW OR NO CLOUDS BELOW 12,000 FEET WITH NO
      SIGNIFICANT WEATHER AND/OR OBSTRUCTIONS TO VISIBILITY.
      SKY/WX - SKY CONDITION AND SIGNIFICANT WEATHER.
      TMP - AIR TEMPERATURE.     DP    - DEWPOINT TEMPERATURE.
      RH  - RELATIVE HUMIDITY.   PRES  - PRESSURE.
      HI  - HEAT INDEX.          WCI   - WIND CHILL INDEX.

*  THESE STATIONS ARE NOT NWS OR FAA STATIONS AND ARE NOT UNDER
   NWS QUALITY CONTROL.

LAZ038-040-048-061>063-065>067-069-280900-
SOUTHEAST LOUISIANA

CITY           SKY/WX    TMP DP  RH WIND       PRES   REMARKS
N.O. AUDUBON     N/A     47  36  65 MISG        N/A
N.O. INTL ARPT CLEAR     47  36  65 NE9       30.42S
N.O. LAKEFRONT CLEAR     49  35  58 NE17      30.43R
N.O. DOWNTOWN*   N/A     46  32  57 N5        30.42S
SLIDELL        CLEAR     33  30  88 N6        30.42F WCI  28
BATON ROUGE    CLEAR     37  31  78 NE5       30.43S WCI  33
BOOTHVILLE     CLEAR     52  41  66 NE8       30.40F
BELLE CHASSE   CLEAR     44  34  67 N5        30.41S
BOGALUSA*        N/A     37  32  82 CALM      30.45F
NEW ROADS*       N/A     38  32  77 NE3       30.44R
GONZALES*        N/A     39  34  84 CALM      30.42S
HAMMOND*       CLEAR     39  32  75 NE3       30.44S
HOUMA*         CLEAR     39  35  87 NE3       30.41S
PORT FOURCHON* SUNNY     52  41  66 NE8       30.43S

$$

MSZ070-080>082-280900-
SOUTHERN MISSISSIPPI

CITY           SKY/WX    TMP DP  RH WIND       PRES   REMARKS
MCCOMB         CLEAR     37  29  72 NE6       30.43S WCI  32
GULFPORT       CLEAR     39  32  76 NE6       30.42F WCI  35
BILOXI         CLEAR     39  32  75 NE8       30.42F WCI  34
PASCAGOULA     CLEAR     34  30  85 N6        30.42F WCI  29

$$

COASTAL OBSERVATIONS
LAKE AND NEARSHORE STATIONS

STATION/POSITION TIME  TEMP    WIND        PRES    WAVE
                       AIR SEA DIR/SP/G            HT/PER
                 (UTC) (F)     (DEG/KT/KT) (MB)    (FT/S)
PASCAGOULA       0800   40      30/  9/ 12 1029.5
WAVELAND YACHT   0800   42      50/  8/ 10 1029.6
GRAND ISLE       0800   52 59   60/ 10/ 12 1029.6
SOUTHWEST PASS   0800   54                 1029.1
NEW CANAL        0800   49 53   60/ 15/ 17 1030.2
SHELL BEACH      0800   49 51   40/ 16/ 19 1029.5

OFFSHORE STATIONS

STATION/POSITION TIME  TEMP    WIND        PRES    WAVE
                       AIR SEA DIR/SP/G            HT/PER
                 (UTC) (F)     (DEG/KT/KT) (MB)    (FT/S)
64 S DAUPHIN ISL 0742   55 71   50/ 17/ 21 1029.4    5/ 6

$$




USA.gov is the U.S. government's official web portal to all federal, state and local government web resources and services.